CW9854 Weather Reports


Display with metric or nautical units.
time (UTC)temp
F
wind
direction
speed
MPH
gust
MPH
rain 1hr
in
rain 24hr
in
rain mn
in
humidity
%
barometer
mb
20260503015003 41 242 1.0 3.0 0.00 0.00 0.00 76 1015.1
20260503014503 41 240 1.0 3.0 0.00 0.00 0.00 75 1015.0
20260503014217 41 238 1.0 3.0 0.00 0.00 0.00 75 1015.1
20260503013503 41 237 1.0 2.0 0.00 0.00 0.00 75 1015.1
20260503013003 41 237 1.0 2.0 0.00 0.00 0.00 76 1015.1
20260503012503 41 237 0.0 2.0 0.00 0.00 0.00 75 1015.1
20260503012003 41 237 1.0 2.0 0.00 0.00 0.00 75 1015.1
20260503011718 41 237 1.0 2.0 0.00 0.00 0.00 75 1015.1
20260503011004 41 237 0.0 2.0 0.00 0.00 0.00 74 1015.1
20260503010503 42 0 0.0 0.0 0.00 0.00 0.00 73 1015.2
20260503010003 41 0 0.0 0.0 0.00 0.00 0.00 73 1015.1
20260503005503 42 0 0.0 0.0 0.00 0.00 0.00 73 1014.9
20260503005003 42 0 0.0 0.0 0.00 0.00 0.00 73 1014.8
20260503004503 42 237 0.0 2.0 0.00 0.00 0.00 73 1014.9
20260503004003 42 237 0.0 2.0 0.00 0.00 0.00 72 1014.7
20260503003720 42 237 1.0 2.0 0.00 0.00 0.00 72 1014.7
20260503003003 42 237 1.0 2.0 0.00 0.00 0.00 71 1014.7
20260503002503 42 237 1.0 2.0 0.00 0.00 0.00 72 1014.8
20260503002003 42 237 1.0 2.0 0.00 0.00 0.00 71 1014.7
20260503001503 42 237 1.0 2.0 0.00 0.00 0.00 72 1014.7
20260503001217 42 237 1.0 2.0 0.00 0.00 0.00 71 1014.6
20260503000503 42 237 1.0 2.0 0.00 0.00 0.00 71 1014.6
20260503000003 42 237 1.0 2.0 0.00 0.00 0.00 71 1014.6
20260502235503 42 237 1.0 2.0 0.00 0.00 0.00 70 1014.6
20260502235218 42 237 1.0 2.0 0.00 0.00 0.00 71 1014.6
20260502234503 42 237 1.0 2.0 0.00 0.00 0.00 70 1014.6
20260502234015 42 237 1.0 2.0 0.00 0.00 0.00 70 1014.5
20260502233503 42 237 1.0 2.0 0.00 0.00 0.00 71 1014.5
20260502233003 43 237 1.0 2.0 0.00 0.00 0.00 70 1014.5
20260502232503 43 236 1.0 3.0 0.00 0.00 0.00 70 1014.6
20260502232218 43 235 1.0 3.0 0.00 0.00 0.00 69 1014.5
20260502231717 43 233 1.0 3.0 0.00 0.00 0.00 69 1014.4
20260502231003 43 237 1.0 3.0 0.00 0.00 0.00 69 1014.4
20260502230503 43 245 1.0 3.0 0.00 0.00 0.00 70 1014.3
20260502230003 43 246 1.0 3.0 0.00 0.00 0.00 69 1014.3
20260502225717 43 246 1.0 3.0 0.00 0.00 0.00 68 1014.3
20260502225003 43 228 1.0 2.0 0.00 0.00 0.00 69 1014.3
20260502224503 43 217 1.0 4.0 0.00 0.00 0.00 70 1014.4
20260502224005 43 224 1.0 4.0 0.00 0.00 0.00 71 1014.4
20260502223503 43 226 1.0 3.0 0.00 0.00 0.00 71 1014.4
20260502223003 43 229 1.0 3.0 0.00 0.00 0.00 71 1014.4
20260502222717 43 237 1.0 3.0 0.00 0.00 0.00 71 1014.4
20260502222003 43 241 2.0 3.0 0.00 0.00 0.00 71 1014.5
20260502221717 43 240 2.0 3.0 0.00 0.00 0.00 71 1014.4
20260502221003 43 243 2.0 3.0 0.00 0.00 0.00 71 1014.5
20260502220503 43 244 2.0 4.0 0.00 0.00 0.00 71 1014.4
20260502220003 43 236 2.0 4.0 0.00 0.00 0.00 70 1014.5
20260502215503 43 230 2.0 4.0 0.00 0.00 0.00 71 1014.4
20260502215003 43 229 2.0 4.0 0.00 0.00 0.00 71 1014.5
20260502214717 43 216 2.0 4.0 0.00 0.00 0.00 71 1014.4
20260502214003 43 199 1.0 4.0 0.00 0.00 0.00 73 1014.3
20260502213503 43 244 1.0 3.0 0.00 0.00 0.00 71 1014.3
20260502213003 43 242 1.0 3.0 0.00 0.00 0.00 72 1014.3
20260502212503 43 220 1.0 4.0 0.00 0.00 0.00 72 1014.3
20260502212004 43 218 2.0 4.0 0.00 0.00 0.00 72 1014.3
20260502211504 42 229 1.0 4.0 0.00 0.00 0.00 73 1014.3
20260502211003 42 236 2.0 4.0 0.00 0.00 0.00 73 1014.2
20260502210503 42 247 1.0 3.0 0.00 0.00 0.00 73 1014.2
20260502210004 42 246 2.0 3.0 0.00 0.00 0.00 73 1014.2
20260502205718 42 243 2.0 3.0 0.00 0.00 0.00 73 1014.1
20260502205003 42 238 2.0 4.0 0.00 0.00 0.00 73 1014.2
20260502204503 42 234 2.0 5.0 0.00 0.00 0.00 72 1014.2
20260502204003 42 228 2.0 5.0 0.00 0.00 0.00 70 1014.2
20260502203503 42 232 2.0 4.0 0.00 0.00 0.00 72 1014.2
20260502203004 42 240 2.0 4.0 0.00 0.00 0.00 71 1014.3
20260502202503 42 240 2.0 4.0 0.00 0.00 0.00 70 1014.3
20260502202003 42 240 2.0 4.0 0.00 0.00 0.00 70 1014.3
20260502201503 43 242 2.0 4.0 0.00 0.00 0.00 70 1014.4
20260502201003 43 224 1.0 3.0 0.00 0.00 0.00 70 1014.4
20260502200503 43 230 2.0 4.0 0.00 0.00 0.00 69 1014.5
20260502200003 43 235 2.0 6.0 0.00 0.00 0.00 70 1014.6
20260502195503 43 233 2.0 6.0 0.00 0.00 0.00 72 1014.5
20260502195003 42 232 2.0 4.0 0.00 0.00 0.00 72 1014.5
20260502194503 42 235 2.0 5.0 0.00 0.00 0.00 72 1014.6
20260502194003 42 246 3.0 6.0 0.00 0.00 0.00 72 1014.6
20260502193503 42 243 3.0 6.0 0.00 0.00 0.00 70 1014.6
20260502193217 43 240 3.0 4.0 0.00 0.00 0.00 70 1014.6
20260502192503 43 227 2.0 5.0 0.00 0.00 0.00 72 1014.7
20260502192217 43 218 2.0 5.0 0.00 0.00 0.00 72 1014.7
20260502191503 43 204 2.0 3.0 0.00 0.00 0.00 71 1014.7
20260502191003 43 216 2.0 4.0 0.00 0.00 0.00 71 1014.8
20260502190503 43 218 2.0 5.0 0.00 0.01 0.00 71 1014.7
20260502190004 43 221 2.0 7.0 0.00 0.01 0.00 69 1014.6
20260502185503 44 237 2.0 7.0 0.00 0.01 0.00 65 1014.6
20260502185216 44 243 2.0 4.0 0.00 0.01 0.00 65 1014.6
20260502184717 44 240 1.0 3.0 0.00 0.01 0.00 67 1014.7
20260502184003 44 278 1.0 3.0 0.00 0.01 0.00 66 1014.6
20260502183717 44 277 1.0 2.0 0.00 0.01 0.00 68 1014.6
20260502183218 44 265 1.0 3.0 0.00 0.01 0.00 66 1014.6
20260502182503 45 319 1.0 3.0 0.00 0.01 0.00 67 1014.5
20260502182218 45 331 2.0 6.0 0.00 0.01 0.00 69 1014.6
20260502181503 45 308 2.0 6.0 0.00 0.01 0.00 66 1014.6
20260502181003 45 266 2.0 3.0 0.00 0.01 0.00 67 1014.6
20260502180503 45 240 2.0 4.0 0.00 0.01 0.00 64 1014.5
20260502164003 46 302 2.0 4.0 0.00 0.02 0.00 55 1014.4
20260502163503 46 263 2.0 4.0 0.00 0.02 0.00 61 1014.5
20260502163003 46 248 2.0 4.0 0.00 0.02 0.00 60 1014.6
20260502162503 45 257 2.0 5.0 0.00 0.02 0.00 62 1014.6
20260502162003 44 272 2.0 5.0 0.00 0.03 0.00 61 1014.7
20260502161503 44 268 2.0 5.0 0.00 0.03 0.00 62 1014.7
20260502161003 44 284 1.0 3.0 0.00 0.03 0.00 59 1014.7
20260502160503 44 269 2.0 7.0 0.00 0.03 0.00 59 1014.6
20260502152003 45 241 2.0 4.0 0.00 0.03 0.00 59 1014.5
20260502151718 44 244 2.0 4.0 0.00 0.03 0.00 57 1014.5
20260502151015 44 268 1.0 3.0 0.00 0.03 0.00 59 1014.6
20260502150503 44 266 2.0 5.0 0.00 0.03 0.00 58 1014.5
20260502130503 41 314 2.0 4.0 0.00 0.03 0.00 71 1015.2
20260502130218 40 299 2.0 4.0 0.00 0.03 0.00 70 1015.2
20260502123503 39 258 1.0 3.0 0.00 0.03 0.00 78 1015.2
20260502123003 38 245 1.0 3.0 0.00 0.03 0.00 81 1015.2
20260502122717 38 252 1.0 3.0 0.00 0.03 0.00 80 1015.4
20260502122003 37 279 1.0 3.0 0.00 0.03 0.00 84 1015.3
20260502121503 37 216 1.0 3.0 0.00 0.03 0.00 84 1015.2
20260502121003 36 207 1.0 3.0 0.00 0.03 0.00 85 1015.2
20260502120503 36 212 0.0 3.0 0.00 0.03 0.00 86 1015.2
20260502115503 35 195 0.0 2.0 0.00 0.03 0.00 87 1015.2
20260502115006 35 187 1.0 3.0 0.00 0.03 0.00 89 1015.2
20260502114503 34 193 1.0 4.0 0.00 0.03 0.00 89 1015.3
20260502114004 34 214 1.0 4.0 0.00 0.03 0.00 89 1015.2
20260502113717 34 215 1.0 3.0 0.00 0.03 0.00 89 1015.2
20260502113004 33 208 0.0 3.0 0.00 0.03 0.00 90 1015.3
20260502112717 33 0 0.0 0.0 0.00 0.03 0.00 91 1015.3
20260502112003 33 0 0.0 0.0 0.00 0.03 0.00 91 1015.1
20260502111503 33 0 0.0 0.0 0.00 0.03 0.00 91 1015.2
20260502111218 33 0 0.0 0.0 0.00 0.03 0.00 91 1015.2
20260502110503 33 0 0.0 0.0 0.00 0.03 0.00 91 1015.1
20260502110003 33 0 0.0 0.0 0.00 0.03 0.00 91 1015.1
20260502105503 33 0 0.0 0.0 0.00 0.03 0.00 90 1015.0
20260502105217 33 0 0.0 0.0 0.00 0.03 0.00 90 1015.0
20260502104503 33 0 0.0 0.0 0.00 0.03 0.00 90 1015.0
20260502104003 33 0 0.0 0.0 0.00 0.03 0.00 90 1015.0
20260502103504 33 0 0.0 0.0 0.00 0.03 0.00 90 1014.7
20260502103003 33 0 0.0 0.0 0.00 0.03 0.00 91 1014.7
20260502102503 33 0 0.0 0.0 0.00 0.03 0.00 90 1014.7
20260502101503 32 0 0.0 0.0 0.00 0.03 0.00 91 1014.6
20260502101003 32 0 0.0 0.0 0.00 0.03 0.00 91 1014.6
20260502100503 32 0 0.0 0.0 0.00 0.03 0.00 90 1014.5
20260502091503 33 0 0.0 0.0 0.00 0.03 0.00 89 1014.3
20260502091003 33 0 0.0 0.0 0.00 0.03 0.00 89 1014.3
20260502090718 33 0 0.0 0.0 0.00 0.03 0.00 89 1014.2
20260502071503 35 250 1.0 2.0 0.00 0.03 0.00 87 1013.8
20260502071218 35 250 1.0 2.0 0.00 0.03 0.00 86 1013.9
20260502070503 36 250 1.0 2.0 0.00 0.03 0.00 86 1013.9
20260502070003 35 250 1.0 2.0 0.00 0.03 0.00 86 1013.9
20260502065503 36 250 1.0 2.0 0.00 0.03 0.00 86 1014.0
20260502065218 36 250 1.0 2.0 0.00 0.03 0.00 86 1013.9
20260502064504 36 250 1.0 2.0 0.00 0.03 0.00 85 1013.9
20260502064003 36 250 1.0 2.0 0.00 0.03 0.00 85 1013.7
20260502063503 36 250 1.0 2.0 0.00 0.03 0.00 85 1013.7
20260502063003 36 250 1.0 2.0 0.00 0.03 0.00 84 1013.9
20260502062503 36 250 1.0 2.0 0.00 0.03 0.00 84 1013.9
20260502062003 36 250 1.0 2.0 0.00 0.03 0.00 84 1013.9
20260502061003 37 250 1.0 2.0 0.00 0.03 0.00 83 1014.0
20260502060503 37 250 1.0 2.0 0.00 0.03 0.00 83 1014.0
20260502060004 37 250 0.0 2.0 0.00 0.03 0.00 83 1014.0
20260502055503 37 250 1.0 2.0 0.00 0.03 0.00 83 1014.1
20260502055003 37 250 1.0 2.0 0.00 0.03 0.00 83 1014.1
20260502054503 38 250 1.0 2.0 0.00 0.03 0.00 83 1014.1
20260502054003 38 250 1.0 2.0 0.00 0.03 0.00 82 1014.1
20260502053716 38 250 1.0 2.0 0.00 0.03 0.00 82 1014.1
20260502053003 38 250 1.0 2.0 0.00 0.03 0.00 82 1014.0
20260502052503 38 250 1.0 2.0 0.00 0.03 0.00 82 1014.0
20260502052003 38 250 1.0 2.0 0.00 0.03 0.00 82 1014.0
20260502051503 39 0 0.0 0.0 0.00 0.03 0.00 81 1014.0
20260502051217 39 0 0.0 0.0 0.00 0.03 0.00 81 1013.9
20260502050503 39 250 1.0 2.0 0.00 0.03 0.00 81 1013.7
20260502050217 39 250 1.0 2.0 0.00 0.03 0.00 80 1013.7
20260502045503 40 250 1.0 3.0 0.00 0.03 0.00 80 1013.6
20260502045003 40 244 1.0 7.0 0.00 0.03 0.00 79 1013.5
20260502044504 40 215 1.0 7.0 0.00 0.03 0.00 79 1013.5
20260502044003 40 225 1.0 3.0 0.00 0.03 0.00 79 1013.4
20260502043503 40 259 1.0 3.0 0.00 0.03 0.00 78 1013.4
20260502043003 41 259 2.0 3.0 0.00 0.03 0.00 79 1013.4
20260502042503 41 244 2.0 3.0 0.00 0.03 0.00 78 1013.4
20260502042003 41 243 1.0 3.0 0.00 0.03 0.00 80 1013.3
20260502041503 41 252 0.0 2.0 0.00 0.03 0.00 82 1013.3
20260502041003 42 252 0.0 1.0 0.00 0.03 0.00 82 1013.2
20260502040503 42 252 0.0 2.0 0.00 0.03 0.00 81 1013.3
20260502040004 42 252 1.0 2.0 0.00 0.03 0.00 82 1013.3
20260502035503 42 252 1.0 2.0 0.00 0.03 0.03 82 1013.3
20260502035003 42 252 1.0 2.0 0.00 0.03 0.03 82 1013.3
20260502034503 42 252 1.0 2.0 0.00 0.03 0.03 83 1013.3
20260502034003 42 252 1.0 2.0 0.00 0.03 0.03 83 1013.4
20260502033503 42 250 1.0 3.0 0.00 0.03 0.03 83 1013.3
20260502033217 42 246 1.0 3.0 0.00 0.03 0.03 82 1013.2
20260502032503 42 242 1.0 3.0 0.00 0.03 0.03 83 1013.2
20260502032217 42 243 1.0 3.0 0.00 0.03 0.03 83 1013.2
20260502031503 42 246 1.0 3.0 0.00 0.03 0.03 82 1013.1
20260502031003 42 241 1.0 3.0 0.00 0.03 0.03 82 1013.1
20260502030503 42 225 1.0 2.0 0.00 0.03 0.03 82 1013.1
20260502030217 42 213 1.0 2.0 0.00 0.03 0.03 82 1013.1
20260502025503 42 221 1.0 3.0 0.00 0.03 0.03 82 1013.2
20260502025003 42 242 1.0 2.0 0.00 0.03 0.03 82 1013.2
20260502024503 42 251 1.0 2.0 0.00 0.03 0.03 82 1013.2
20260502024216 42 250 1.0 3.0 0.00 0.03 0.03 82 1013.2
20260502023503 42 222 1.0 3.0 0.00 0.03 0.03 82 1013.2
20260502023003 42 202 1.0 2.0 0.00 0.03 0.03 83 1013.3
20260502022503 42 202 1.0 2.0 0.00 0.03 0.03 83 1013.2
20260502022003 42 215 0.0 2.0 0.00 0.03 0.03 83 1013.2
20260502021503 42 218 1.0 2.0 0.00 0.03 0.03 83 1013.2
20260502021003 42 217 1.0 2.0 0.00 0.03 0.03 82 1013.2
20260502020717 42 217 1.0 2.0 0.00 0.03 0.03 82 1013.2
20260502020218 42 229 1.0 3.0 0.00 0.03 0.03 81 1013.2
20260502015503 42 248 2.0 3.0 0.00 0.03 0.03 81 1013.1